RH
3 4 4 4 4 4 4 4 4 3 3 3 3 3 3 2 2 2 2 2 2 1 2 2 2 2 2 3 4 6 6 6 8 8 10 12 13 15 14 14 14 13 13 13 13 13 13 12 12 12 11 11 11 10 10 9 9 9 7 7 6 7 9 12 29 44 36 34 35 23 11 11 20 17 9 10 6 7 21 26 19 32 49 58 80 90 82 80
4 4 4 4 4 4 4 4 4 3 3 3 3 3 3 3 2 2 2 2 1 1 2 1 3 2 4 5 6 9 8 9 10 11 15 16 17 18 18 18 17 17 16 16 15 15 14 14 14 12 12 12 12 12 12 11 11 10 9 8 7 8 9 18 36 44 39 37 35 23 9 10 15 16 15 12 10 4 19 37 26 43 58 54 76 86 76 69
4 4 4 4 4 4 4 4 4 4 4 3 3 3 3 3 2 2 2 2 1 2 1 1 2 2 6 8 11 12 11 13 10 15 23 20 20 21 21 21 20 20 19 18 18 17 17 16 15 14 14 13 13 13 12 13 12 11 11 8 8 9 10 28 47 45 42 39 30 21 10 12 14 12 12 8 12 8 20 39 34 49 64 65 75 74 66 50
4 4 4 4 4 4 4 4 4 4 4 4 4 3 3 3 3 2 2 2 2 2 2 2 2 3 8 12 16 18 18 16 11 21 30 24 25 26 25 25 24 23 22 21 20 19 19 18 17 16 16 15 15 14 13 13 12 13 11 9 11 11 14 32 49 47 42 33 23 18 9 13 15 10 9 6 10 18 32 40 42 64 80 84 75 56 46 33
4 4 4 4 4 4 4 4 4 4 4 4 4 4 3 3 3 3 2 2 2 2 2 2 3 4 8 13 19 24 26 20 15 28 34 28 30 31 29 28 27 26 24 24 22 22 21 20 19 18 17 17 17 15 15 14 12 14 12 12 13 10 21 42 53 47 34 23 17 10 8 18 14 6 8 7 10 23 46 51 52 78 90 90 79 56 42 33
4 4 4 4 4 4 5 5 5 4 4 4 4 4 4 3 3 3 3 3 3 2 2 2 3 5 8 14 20 27 33 26 22 36 39 34 34 32 32 30 28 28 26 25 24 24 23 22 21 20 19 18 18 17 16 16 14 14 13 15 15 12 21 42 57 46 19 10 12 8 12 17 9 9 7 9 23 28 39 43 46 77 90 88 83 72 60 44
4 4 4 4 4 5 5 5 5 5 5 5 4 4 4 4 3 3 3 3 3 3 3 3 3 5 8 13 19 27 36 30 28 43 47 44 41 35 34 31 30 29 28 27 26 25 24 23 22 21 21 20 19 18 18 18 16 15 15 15 16 17 18 24 37 30 9 4 11 11 14 11 6 14 9 16 39 32 30 37 43 74 88 86 84 76 70 55
4 4 4 4 4 5 5 5 5 5 5 5 5 5 4 4 4 4 4 4 4 4 4 3 3 5 7 12 17 26 34 32 38 51 51 50 49 42 39 34 31 29 28 28 26 26 25 24 24 22 22 21 20 19 19 19 17 16 16 17 16 16 19 21 21 15 8 8 12 11 10 9 7 16 18 25 30 16 32 52 49 67 78 78 84 75 68 62
4 4 4 4 4 5 5 5 5 6 6 6 5 5 5 5 4 4 4 4 4 4 4 5 4 4 7 10 15 22 26 30 45 55 51 51 52 49 48 41 34 30 28 28 27 26 25 24 24 23 22 21 20 20 19 19 18 17 16 18 18 15 20 23 17 11 10 9 11 11 10 10 9 15 20 20 17 7 23 38 37 63 77 70 77 78 68 59
4 4 4 4 5 5 5 5 6 6 6 6 6 6 6 5 5 5 5 5 5 5 5 6 6 5 7 9 14 19 21 27 40 52 56 54 51 49 50 48 43 34 28 28 27 26 25 24 23 23 22 21 21 19 19 19 17 18 19 18 18 17 18 17 13 11 13 12 12 12 11 11 12 14 13 15 26 22 14 15 20 45 57 49 63 76 66 51
4 4 4 4 5 5 5 5 6 6 6 6 6 6 7 6 7 6 7 7 6 6 6 7 7 7 7 8 14 18 21 27 31 44 56 56 52 50 48 48 47 42 34 27 27 27 25 25 24 23 22 21 21 20 19 19 18 18 19 18 17 18 16 16 15 12 14 15 12 13 12 13 12 12 13 13 21 19 9 15 22 27 25 26 52 69 61 51
4 4 5 4 5 5 5 6 6 6 6 7 7 7 7 7 8 8 9 9 8 8 7 8 8 8 8 9 15 17 21 28 30 38 52 56 53 48 46 45 45 46 42 32 27 27 26 25 24 23 23 21 20 20 19 19 18 18 18 17 16 17 17 15 15 14 16 15 13 14 13 14 12 13 14 10 26 33 13 11 19 17 11 15 50 75 70 55
4 4 4 5 5 5 5 6 6 7 7 7 7 7 7 8 10 10 11 11 10 9 8 8 9 9 9 10 14 16 21 28 29 34 46 54 50 43 41 41 41 45 45 41 32 26 27 26 25 24 22 22 21 19 20 18 18 18 17 17 16 17 17 16 16 15 15 16 16 15 12 14 13 15 14 12 40 53 23 9 11 10 13 23 53 76 72 51
5 4 4 5 5 5 5 6 6 7 7 7 7 7 8 9 10 12 12 13 13 12 10 9 10 10 10 12 13 16 24 27 27 30 35 42 44 40 38 38 41 42 43 46 38 29 28 26 25 25 22 22 20 19 19 17 18 18 17 17 17 16 15 15 16 15 16 17 17 16 14 15 15 17 15 15 30 31 17 15 13 10 20 35 53 64 62 45
6 5 5 5 5 5 5 6 6 6 7 7 7 8 8 9 11 12 13 15 16 16 14 11 11 11 12 13 12 16 24 28 31 33 33 37 42 42 42 43 44 43 42 44 43 35 29 27 26 23 22 21 18 18 18 17 16 16 16 16 15 15 15 15 15 14 15 16 17 17 15 15 19 23 17 18 29 20 12 21 19 16 23 36 54 57 53 43
7 7 7 6 5 6 6 6 6 7 7 7 8 8 9 9 10 11 13 15 18 20 19 15 13 12 13 14 14 16 20 25 28 32 37 45 52 52 48 48 48 47 45 44 44 40 32 29 27 23 22 18 17 17 16 16 15 14 14 14 15 14 13 14 15 18 16 13 18 17 15 17 18 28 29 29 43 32 15 22 25 24 23 30 49 52 47 42
7 7 8 7 7 7 7 7 7 7 7 7 8 8 9 10 9 11 13 15 19 22 22 19 15 14 14 14 14 16 18 22 27 32 41 50 58 59 52 50 52 50 48 45 43 41 37 33 28 26 22 18 17 15 14 15 13 13 13 11 13 14 15 14 16 30 31 20 26 23 14 17 19 34 47 47 50 37 21 24 26 22 21 29 45 49 42 38
9 8 8 9 9 9 8 8 8 8 8 8 8 8 9 9 9 10 11 14 19 23 25 22 18 16 16 16 16 18 19 24 34 39 43 51 59 60 54 54 56 51 49 48 45 42 39 34 30 26 21 20 17 15 16 13 10 16 21 19 15 10 15 18 19 37 42 28 35 40 20 13 24 40 50 48 46 48 42 30 22 17 15 26 42 44 38 35
9 9 9 9 9 10 10 9 9 8 8 9 9 9 9 9 9 10 10 13 17 23 26 24 22 21 19 20 22 24 22 24 38 45 45 53 60 58 56 56 54 52 51 49 45 43 40 35 31 25 21 19 16 16 14 11 25 45 53 55 47 26 18 25 26 31 39 32 34 45 35 16 19 38 52 47 41 62 68 37 23 24 14 18 31 40 43 39
9 9 9 10 10 10 10 10 10 9 9 9 9 10 10 10 10 10 11 13 16 21 25 26 25 25 23 21 22 23 23 29 43 47 45 53 59 57 56 54 52 53 51 48 45 41 38 34 28 22 18 17 14 15 11 14 43 66 67 70 72 54 36 39 36 29 37 40 36 43 46 30 17 28 54 60 43 49 59 39 29 28 17 14 23 39 47 37
9 9 8 9 10 10 11 11 10 10 10 9 9 10 11 11 11 11 11 14 16 18 24 28 27 28 27 23 22 21 22 36 49 47 47 53 56 55 54 52 51 50 49 48 43 38 35 30 24 18 15 16 14 14 12 14 27 43 56 65 70 59 47 47 43 39 41 42 46 50 48 36 21 23 43 60 55 39 39 41 34 26 17 14 20 34 40 30
9 9 8 8 9 10 11 12 11 10 10 10 10 10 10 10 11 11 11 15 19 18 22 30 30 30 32 27 24 23 26 40 51 51 52 53 54 52 50 50 49 47 46 44 41 37 31 22 18 17 16 15 15 13 13 14 11 16 38 54 58 58 53 48 46 48 47 45 51 58 61 42 21 32 41 47 57 39 24 30 29 23 19 15 19 26 27 22
9 8 8 8 9 9 11 11 11 11 10 10 10 9 10 10 10 12 11 13 19 19 19 29 33 31 33 32 27 26 33 45 51 52 52 51 52 50 48 47 45 44 42 38 36 30 22 17 17 16 17 15 14 14 11 12 11 10 21 27 38 59 59 48 50 53 48 47 48 59 76 60 41 49 36 33 59 45 21 26 28 23 19 17 22 23 24 22
12 10 9 8 8 8 9 9 9 10 10 9 9 9 10 10 10 12 13 11 16 20 18 24 34 35 34 34 32 30 38 48 51 51 51 50 49 47 48 45 40 40 37 32 27 20 16 20 21 16 16 16 15 15 12 11 11 10 15 14 22 53 63 52 55 58 53 49 44 48 58 59 69 72 38 35 65 47 22 30 30 23 19 20 23 21 22 21
22 20 19 17 14 13 12 11 10 9 8 8 9 9 10 11 12 12 14 12 13 19 18 16 27 36 35 33 34 36 40 46 49 50 50 50 48 45 45 43 37 33 29 25 19 16 22 29 32 31 24 17 15 15 13 12 12 10 12 12 14 39 62 60 57 61 59 50 50 51 42 39 49 50 40 46 49 28 20 29 26 20 24 26 24 20 22 22
35 34 34 31 28 25 24 24 23 20 16 15 14 14 13 14 14 13 15 14 13 16 16 16 27 38 37 32 34 38 39 41 44 48 49 49 49 44 39 38 37 29 20 23 20 15 28 35 34 38 32 18 15 16 13 11 11 10 11 12 12 25 50 61 64 71 62 50 68 70 47 40 35 28 44 52 35 21 22 25 20 19 26 26 23 24 25 24
44 43 42 40 37 35 35 36 37 34 30 29 27 25 23 20 18 17 17 15 15 16 17 22 33 42 42 36 35 35 35 37 38 42 45 46 47 44 38 35 35 29 19 24 30 25 29 33 26 26 25 18 17 15 13 13 10 10 11 12 14 14 27 49 66 83 78 61 76 77 51 46 49 58 77 65 39 29 24 22 20 22 23 18 25 29 22 25
50 49 47 44 42 41 41 40 40 40 36 36 36 33 31 28 25 22 20 19 19 21 25 30 36 43 44 39 37 36 33 35 36 37 41 42 43 42 37 33 29 27 21 21 35 38 29 25 22 21 21 20 19 15 14 13 10 12 18 36 53 34 19 40 61 78 86 72 74 80 63 48 48 65 80 65 48 38 27 25 25 24 20 17 32 33 20 35
49 49 48 46 44 44 43 42 43 43 40 40 41 38 36 35 32 28 25 24 25 29 32 33 37 41 39 35 38 41 37 35 35 35 36 36 40 41 34 29 25 23 25 21 27 47 48 32 23 21 22 22 19 15 15 13 11 12 15 39 70 50 20 33 52 65 76 65 65 79 75 61 57 57 55 54 53 39 30 36 36 29 22 25 36 31 27 47
41 42 42 42 42 41 41 42 42 43 42 43 42 41 41 39 37 34 30 27 32 39 37 38 49 48 38 34 36 41 40 37 36 34 36 35 34 37 31 27 26 23 27 25 22 44 57 40 25 21 21 22 21 18 17 16 15 14 10 20 43 39 26 32 35 51 72 59 46 65 76 71 74 70 57 55 53 44 45 48 45 38 29 33 38 28 32 48
27 27 28 29 31 32 33 34 36 38 39 40 41 42 42 41 40 37 33 31 35 40 32 33 50 48 37 35 36 42 43 39 37 34 36 38 34 34 29 25 27 25 26 28 25 31 35 28 23 23 22 21 24 24 23 23 19 14 10 21 43 50 46 49 45 47 64 52 32 55 79 71 70 73 64 61 62 60 59 47 42 45 36 32 33 27 33 48
11 11 12 13 14 15 17 19 22 26 30 33 36 38 40 42 40 37 35 34 38 44 40 33 39 39 36 37 34 39 46 42 40 38 36 37 36 35 32 26 25 25 28 31 31 29 27 25 24 25 26 23 23 26 27 25 19 16 15 19 51 78 67 62 69 58 46 33 27 59 87 77 69 70 64 71 75 68 61 52 54 57 44 33 29 27 37 49
4 5 4 4 5 5 6 7 7 11 14 19 26 30 36 37 35 36 39 39 43 56 64 57 54 52 46 47 46 43 47 46 43 43 40 36 36 37 33 30 26 26 36 41 37 34 30 26 25 27 28 25 24 24 28 30 18 13 18 18 44 85 80 65 73 74 60 44 39 57 76 79 81 75 65 66 67 65 67 68 67 58 47 43 37 34 42 52
4 4 4 4 4 3 3 4 3 4 4 7 11 16 24 28 30 36 39 40 42 49 64 72 72 68 56 55 62 56 53 57 51 48 49 42 38 37 34 33 29 26 38 44 41 43 40 33 29 28 28 28 25 20 32 58 48 16 11 29 54 79 81 74 74 79 81 73 68 68 68 79 87 75 61 53 51 60 67 66 65 56 48 48 46 45 48 55
5 5 5 5 5 4 4 4 3 4 3 4 4 5 10 14 22 32 36 41 41 35 51 74 76 69 67 70 74 68 68 74 65 54 56 52 44 40 37 38 36 29 32 37 41 49 49 48 47 36 29 29 29 21 26 58 76 45 12 24 58 73 76 81 79 80 85 79 82 88 79 79 82 72 65 59 52 58 63 63 65 61 53 46 40 41 46 50
7 6 6 6 6 6 5 5 5 4 4 4 3 3 4 4 10 20 30 39 42 39 54 79 79 65 69 77 73 72 80 88 86 76 68 62 56 49 41 40 42 38 36 35 39 47 51 65 77 65 43 30 30 30 21 32 67 72 38 30 59 74 73 81 79 76 81 76 75 82 78 75 76 70 64 61 60 64 66 65 63 57 52 47 39 40 46 43
7 7 7 6 6 6 5 6 6 5 5 4 4 3 3 3 3 7 19 33 50 68 79 88 86 75 74 71 64 74 84 80 84 88 81 75 72 65 57 53 49 45 43 40 44 53 58 70 86 84 67 47 32 32 29 24 44 73 72 58 67 79 77 82 88 79 74 74 72 72 74 78 81 73 59 54 56 55 57 62 61 55 53 53 51 52 52 45
7 6 6 6 6 6 6 5 5 5 6 5 5 4 3 4 4 2 10 24 50 85 99 93 91 91 90 80 67 73 78 67 69 81 86 87 84 78 79 82 75 61 52 48 54 64 65 69 80 83 87 79 50 35 38 31 32 66 92 77 66 80 86 86 92 84 72 73 72 69 72 80 81 73 61 55 51 48 52 54 53 56 61 62 59 55 51 48
6 6 6 6 6 5 5 6 7 6 5 5 5 6 4 4 5 4 5 17 49 88 97 86 85 91 95 94 86 81 82 80 78 82 87 86 85 86 85 88 91 85 74 65 60 61 60 70 85 87 93 98 76 50 45 40 37 57 81 78 68 77 87 88 89 84 78 81 79 73 75 77 74 66 61 61 60 55 50 43 47 65 75 71 65 60 54 48
7 6 6 10 14 15 13 15 16 13 10 8 6 6 6 4 4 4 3 13 49 89 97 84 85 93 95 94 91 89 96 99 89 82 82 79 84 93 87 83 90 91 90 88 78 68 59 63 82 91 91 94 90 76 61 53 58 65 68 68 70 77 86 87 85 80 78 84 86 82 77 71 67 65 62 61 63 60 55 52 61 72 72 64 57 52 56 63
6 7 16 25 29 26 20 18 19 17 14 10 8 7 5 4 6 6 3 5 25 56 75 78 82 91 97 96 91 91 99 99 90 85 85 80 84 92 85 82 91 93 93 98 98 91 74 60 66 81 87 82 83 92 88 73 70 76 73 64 65 83 93 88 83 81 77 77 79 80 81 76 70 67 65 66 69 67 65 64 61 58 59 62 59 55 65 82
7 16 26 28 28 25 20 17 16 20 21 16 18 23 18 7 4 4 5 11 19 26 37 56 69 72 79 87 90 96 99 93 88 90 89 85 85 86 81 77 83 92 93 95 99 95 83 71 64 69 77 78 79 90 99 94 82 78 81 79 76 79 79 73 77 84 84 77 70 73 83 84 75 67 65 70 70 65 66 65 58 55 55 54 54 54 58 64
11 20 23 25 34 33 28 27 24 26 31 26 27 46 52 33 12 7 10 15 22 17 14 37 65 69 66 67 70 83 95 94 93 92 92 94 90 87 87 82 81 85 85 90 96 88 83 84 78 71 72 77 83 83 86 96 99 88 84 89 93 89 79 73 75 83 89 83 75 80 84 78 75 72 66 64 60 59 67 70 64 62 57 51 49 47 46 50
9 18 28 38 45 41 38 41 38 34 33 32 36 53 67 59 39 27 16 8 13 15 13 26 51 67 64 53 57 79 94 95 95 92 91 95 94 92 91 86 87 86 80 84 88 81 84 90 84 81 81 81 84 83 84 94 95 86 80 82 90 96 95 89 82 83 89 86 88 96 87 72 73 72 64 61 61 63 69 70 68 67 63 59 55 50 49 51
11 21 29 31 31 34 33 30 36 40 32 27 36 52 61 62 61 53 27 9 13 21 25 25 38 72 81 53 50 81 97 95 98 97 93 93 91 92 92 90 94 95 84 77 78 80 89 91 86 86 88 88 88 87 93 96 82 74 78 80 85 94 98 96 91 86 83 81 86 90 80 73 77 75 63 58 61 63 67 69 70 68 63 58 54 51 51 47
17 23 23 25 35 47 44 38 52 64 54 40 38 53 67 68 75 80 52 25 20 21 33 37 33 60 86 73 65 81 88 90 100 97 92 98 98 92 91 91 90 91 86 81 82 86 85 80 83 89 89 91 94 90 90 90 80 76 77 78 85 93 94 96 97 90 83 82 85 83 77 78 83 75 60 55 60 67 74 79 78 70 62 58 54 50 48 44
23 27 28 34 47 51 43 47 62 66 68 62 40 41 68 77 83 95 75 45 33 27 40 59 49 41 60 72 71 68 64 76 97 97 87 95 100 91 88 90 89 91 92 90 90 89 82 75 77 84 89 91 93 94 94 93 92 89 83 81 85 86 85 89 91 88 86 86 86 82 78 81 84 77 65 63 67 72 78 85 89 83 69 60 56 52 50 49
24 35 38 43 52 54 47 45 47 45 54 57 37 36 63 71 72 89 87 68 54 41 39 54 54 45 54 73 73 56 45 54 77 92 94 94 87 79 79 80 82 88 87 85 86 83 81 81 77 78 85 86 87 90 89 92 98 97 92 90 86 81 80 80 79 80 81 81 79 77 78 81 80 78 79 79 76 74 74 73 78 83 75 64 60 57 53 52
19 30 39 50 61 70 73 62 48 46 44 36 33 44 54 59 68 81 86 79 65 55 58 61 57 49 54 76 89 75 52 44 50 63 79 84 72 67 73 73 77 84 78 72 75 73 72 75 75 80 85 84 86 88 82 85 97 101 99 95 87 81 75 65 64 68 70 74 76 75 81 86 81 79 85 85 76 72 70 62 63 72 72 64 60 59 58 57
13 18 33 56 68 74 85 78 56 49 42 32 43 51 36 42 71 81 80 80 66 58 70 78 71 60 51 59 82 86 65 49 41 38 49 64 66 66 72 76 85 89 76 66 69 70 70 71 70 73 77 73 76 80 76 78 87 95 99 97 93 89 79 69 72 74 69 71 76 76 80 86 86 87 91 88 78 73 67 61 63 69 68 63 62 63 63 60
9 15 33 56 65 69 84 86 62 43 37 36 50 57 35 27 50 65 72 83 77 64 62 61 60 61 53 47 60 74 68 54 43 32 34 50 62 65 66 70 79 82 71 64 64 64 62 64 64 64 64 65 68 69 69 70 74 81 87 92 96 97 91 86 88 91 84 75 72 72 73 76 78 80 83 82 79 78 78 76 77 77 72 67 64 65 64 58
6 14 32 45 52 58 71 83 71 47 40 44 50 60 59 46 44 47 54 68 75 68 57 50 54 63 65 61 64 70 67 54 40 31 30 42 57 62 64 67 72 76 74 69 70 74 69 62 63 62 61 65 67 65 66 70 72 73 77 86 94 96 95 94 91 94 95 83 71 67 65 66 68 71 73 74 75 78 82 84 86 88 84 75 68 66 65 60
Wind_Speed
29 29 29 29 29 29 29 29 29 29 29 29 29 29 30 30 31 31 32 32 32 32 33 33 32 32 31 30 30 29 29 29 28 28 27 26 26 25 25 24 24 24 24 24 24 25 26 26 26 27 27 27 26 26 25 26 26 26 28 27 24 22 18 16 11 5 13 12 23 37 38 39 28 26 28 20 22 24 25 28 26 25 22 22 22 22 24 23
29 29 29 29 28 28 29 28 28 28 28 28 28 28 29 29 30 30 31 31 31 31 32 32 31 31 30 29 28 28 28 27 27 26 25 24 24 24 23 23 23 23 23 23 23 24 24 25 26 26 27 26 26 25 26 26 25 26 26 25 23 21 18 14 10 8 17 22 33 41 39 37 25 26 28 17 20 24 24 27 26 24 22 24 23 22 23 23
29 29 28 28 28 28 28 27 27 27 27 27 27 28 28 28 28 29 29 30 30 30 31 31 30 30 29 28 27 27 26 26 27 24 21 23 23 22 22 22 22 22 22 22 23 23 24 24 25 25 26 26 26 26 26 26 26 26 25 25 22 19 18 16 13 18 27 33 38 40 37 30 19 24 27 20 19 22 25 27 26 25 25 25 24 24 23 23
28 28 28 28 28 27 27 27 26 26 26 26 27 27 27 27 27 28 28 28 29 29 30 30 30 29 28 27 26 26 25 27 27 20 19 22 21 20 21 20 21 21 21 22 22 23 23 24 24 25 25 25 26 26 26 27 27 26 25 24 20 18 19 15 16 28 35 40 38 38 31 16 17 25 24 20 20 22 26 27 24 24 24 24 24 25 24 24
29 28 28 28 27 27 26 26 26 26 26 26 26 26 26 27 26 27 27 27 28 28 29 29 29 29 28 27 26 25 25 28 25 17 19 22 19 19 19 19 20 20 21 21 21 22 22 23 24 24 25 25 26 26 26 27 25 25 25 23 19 20 21 13 18 32 39 42 37 35 25 13 25 29 21 21 22 23 26 26 23 22 22 23 23 23 23 22
28 28 28 27 27 26 26 25 25 25 25 25 25 25 25 26 26 26 26 26 26 27 27 28 29 29 29 27 26 25 24 28 24 14 17 19 17 18 19 19 20 20 20 21 21 22 22 23 23 24 24 25 26 26 25 25 25 24 25 23 20 23 26 24 27 36 39 35 27 28 24 23 30 25 20 20 18 23 27 27 23 20 21 20 20 20 21 21
28 28 27 27 26 26 25 25 25 24 24 24 24 24 25 25 25 25 25 25 26 26 26 27 28 29 29 28 27 26 25 29 24 15 17 17 15 16 17 19 19 20 20 21 21 22 22 23 23 24 24 25 26 26 25 26 26 25 25 23 22 26 31 31 33 37 35 24 19 25 27 29 25 18 20 16 17 25 26 26 23 20 18 16 18 19 19 21
28 28 27 27 26 26 25 25 24 24 24 24 24 24 24 24 24 24 24 25 25 25 26 26 27 28 29 29 28 27 28 29 23 18 21 19 17 17 17 18 19 20 21 21 22 22 23 23 23 24 25 25 26 26 26 27 27 27 25 23 25 28 30 31 33 36 34 22 20 27 27 25 19 16 22 20 22 27 23 23 23 20 18 15 16 16 16 20
28 28 27 27 26 25 25 24 24 24 24 23 23 23 23 23 23 24 23 24 25 25 25 25 26 28 29 30 29 30 30 28 22 21 23 20 20 20 19 19 18 20 21 22 22 22 23 23 24 24 25 26 26 27 27 28 29 28 25 24 27 28 30 32 34 34 33 25 24 29 25 23 19 19 27 25 22 27 24 24 25 20 18 15 15 15 16 22
28 28 27 27 26 26 25 24 24 23 23 23 23 23 22 22 22 23 23 23 24 24 25 25 26 27 28 30 30 31 32 28 23 23 24 23 23 23 22 21 19 19 20 22 23 23 23 23 24 25 26 27 27 29 29 29 30 27 25 28 29 30 32 34 34 32 30 27 27 29 25 23 22 23 30 22 17 25 22 23 29 25 20 19 19 19 20 24
28 28 27 27 26 26 25 25 24 23 23 23 22 22 22 22 22 22 23 23 23 24 25 25 26 27 28 29 30 32 32 27 25 24 25 25 24 24 24 23 22 20 20 22 23 23 24 24 25 25 26 26 27 29 28 29 29 27 28 32 30 30 33 34 34 32 28 29 29 28 25 24 24 26 28 19 20 29 20 21 30 28 25 25 23 24 24 24
29 28 28 27 27 26 26 25 25 24 23 23 22 22 21 21 22 22 23 23 23 23 24 25 26 27 28 28 28 32 31 27 26 25 25 26 25 25 25 24 24 23 22 22 23 23 24 25 24 24 26 27 28 28 27 29 30 28 31 32 28 31 34 33 34 30 27 30 29 28 27 24 24 26 25 18 21 29 23 24 29 25 26 27 24 24 25 24
29 29 28 27 27 27 26 26 25 24 24 23 22 22 21 21 22 22 23 22 22 23 23 24 25 27 28 27 28 31 30 28 27 26 25 26 26 26 26 25 25 25 25 23 23 24 24 24 24 24 26 27 27 28 30 31 29 29 31 31 29 32 33 31 32 29 28 30 29 30 27 23 24 24 20 17 22 26 22 23 26 24 26 27 25 24 24 24
29 29 28 28 28 27 27 27 26 25 24 23 23 22 22 22 22 22 23 22 22 22 23 23 24 26 26 26 29 28 28 29 27 25 26 26 26 25 25 26 25 27 27 25 24 24 24 24 24 25 27 27 26 29 31 30 29 29 30 30 31 32 31 30 31 29 28 29 29 30 27 23 23 22 17 16 27 31 20 19 24 24 26 27 25 24 24 23
29 29 29 29 28 28 28 27 27 26 24 24 23 22 22 22 22 23 23 22 22 22 22 23 23 25 24 26 28 26 28 29 26 25 25 24 25 24 25 26 26 26 27 28 26 24 24 25 25 26 26 26 26 29 30 28 28 28 29 30 31 32 30 29 30 30 30 28 29 31 28 25 22 20 17 15 26 31 20 20 25 25 27 27 24 25 24 24
30 30 29 29 29 28 28 28 27 26 25 24 23 23 23 23 23 23 23 23 22 21 21 22 22 23 23 24 25 26 28 28 26 25 24 23 24 25 25 26 26 26 26 28 28 26 25 25 26 26 27 27 27 29 28 27 27 27 28 28 29 30 29 28 27 27 29 27 29 32 30 25 18 14 14 16 26 31 23 21 26 27 27 27 25 25 24 25
30 30 30 29 29 29 28 28 27 27 26 25 24 23 23 24 24 24 24 22 21 21 21 21 21 21 22 23 24 26 26 25 25 24 23 23 24 25 25 25 26 26 26 27 28 28 27 26 27 27 28 27 27 28 26 26 26 25 26 26 26 26 25 25 21 21 28 26 26 33 32 24 16 13 8 16 31 34 25 22 27 29 26 27 25 22 23 24
31 31 30 30 30 29 29 29 28 27 26 26 25 24 24 24 24 24 24 22 21 21 21 20 19 20 21 20 22 24 24 23 24 24 23 23 24 25 25 25 26 26 25 26 27 28 28 28 28 28 28 27 27 27 26 26 23 19 19 21 22 22 24 22 15 18 30 24 19 28 32 23 18 18 12 16 34 31 21 21 26 29 26 27 25 21 23 23
31 31 31 31 31 30 30 30 29 29 27 27 26 25 25 25 24 25 23 21 21 21 21 20 18 19 19 18 20 23 23 22 22 24 23 23 24 25 24 24 26 25 25 25 26 28 29 28 29 28 28 27 26 26 24 22 14 10 13 15 19 19 20 18 15 17 29 28 21 25 29 23 24 25 18 24 35 26 18 17 20 26 25 25 26 24 23 23
30 31 31 31 31 31 30 30 30 30 29 28 27 26 26 25 25 26 22 21 22 21 21 19 17 19 19 18 21 22 21 20 22 24 23 22 23 24 23 24 25 25 24 25 25 27 28 28 28 27 25 25 24 24 22 18 17 19 20 15 17 19 15 15 17 17 26 31 28 26 26 23 25 25 19 24 33 32 30 21 17 26 25 22 26 26 23 22
29 30 31 31 31 31 31 31 31 31 30 29 28 27 27 26 26 26 22 20 22 21 20 19 18 17 18 18 20 21 20 19 22 23 22 21 22 23 23 23 23 24 24 24 25 26 26 27 26 24 23 23 23 22 20 22 26 28 25 17 12 18 14 13 17 17 25 32 26 25 26 25 25 24 21 24 29 32 35 27 22 28 28 24 26 27 25 23
28 29 29 30 31 31 31 31 31 31 31 30 29 28 28 27 27 27 24 20 22 22 20 19 19 17 18 18 18 20 20 19 21 22 21 21 21 22 22 22 23 23 23 25 25 25 25 24 23 23 22 22 23 23 22 26 28 27 26 22 17 16 14 14 16 19 28 34 26 20 20 24 26 23 25 26 26 29 29 26 26 31 31 28 27 27 27 25
27 27 27 28 29 29 29 29 30 31 31 30 29 28 28 28 28 27 25 21 21 23 20 19 20 20 19 18 18 19 19 20 21 22 22 21 22 23 22 21 22 23 23 24 24 23 22 20 21 22 21 22 24 24 23 23 22 21 25 25 20 15 14 17 19 24 35 38 31 24 19 20 20 23 29 26 25 33 28 19 22 28 30 30 28 27 28 26
25 26 26 26 27 26 26 26 28 29 30 29 28 28 27 27 28 27 27 23 20 22 22 19 20 21 19 18 18 17 18 21 22 23 22 20 22 23 22 21 21 22 23 22 22 22 20 19 21 21 21 25 24 21 20 18 17 18 23 26 22 18 14 16 20 26 33 35 35 32 29 25 19 23 30 26 27 31 24 18 21 25 30 31 29 28 28 27
25 25 25 25 25 25 24 24 25 26 27 28 27 27 26 27 28 27 27 25 21 22 23 20 19 21 21 19 17 17 20 22 21 23 22 20 22 22 20 22 22 22 22 21 22 21 19 18 20 20 21 25 22 18 19 18 18 19 21 22 22 21 17 15 21 25 30 33 29 25 26 29 26 25 27 29 33 32 27 27 25 26 30 31 31 30 29 29
26 26 26 25 25 24 23 23 24 24 26 26 25 25 25 26 27 28 27 26 23 22 23 20 16 18 21 20 18 19 21 20 20 23 22 20 22 21 20 22 22 22 22 20 22 21 19 20 22 21 22 23 18 16 18 18 18 18 19 19 20 23 23 22 21 22 28 30 23 16 17 23 24 25 24 28 34 33 30 31 28 28 32 33 33 30 30 33
28 28 28 27 27 26 25 25 24 26 27 26 24 25 26 26 27 27 27 26 25 23 23 21 17 17 20 19 19 20 20 20 21 24 22 20 22 21 21 23 22 23 22 20 21 22 20 22 25 23 22 20 17 17 17 16 17 16 17 17 18 25 26 26 26 18 19 22 21 18 18 18 17 19 19 21 27 29 29 30 29 30 34 35 32 29 32 36
28 29 29 29 29 29 28 28 27 28 29 27 27 28 27 26 27 27 27 27 26 23 22 21 18 18 20 19 18 19 21 21 21 22 21 20 22 22 22 23 22 22 23 23 22 21 21 23 26 23 19 18 17 17 16 16 16 15 16 14 15 23 26 26 27 18 14 17 21 21 20 19 20 21 22 21 24 26 27 29 29 31 35 33 30 32 36 35
27 28 29 29 29 29 30 30 29 30 30 29 30 30 29 28 28 27 27 28 25 20 21 22 19 20 21 20 18 19 20 20 20 21 21 21 22 22 22 22 23 23 25 26 23 20 20 23 26 23 19 17 16 16 17 16 15 17 20 16 15 22 27 28 26 18 15 19 22 20 20 20 20 25 29 26 25 26 26 28 29 32 32 27 29 35 34 29
24 25 26 27 28 28 29 29 29 29 30 30 31 31 30 30 29 29 29 29 22 18 22 22 19 21 22 20 19 19 20 18 20 23 22 21 22 22 22 23 24 25 26 26 24 21 21 23 26 25 20 17 16 16 17 16 16 19 22 17 16 21 24 27 25 19 19 25 25 20 18 19 19 23 27 26 26 25 23 26 29 29 26 22 26 30 27 24
22 23 24 25 26 26 26 26 26 27 28 29 30 31 32 31 31 32 30 26 20 19 24 23 20 22 21 19 20 20 20 19 22 24 21 20 21 21 23 25 25 26 26 24 23 24 25 25 24 21 19 19 20 21 20 18 19 21 21 17 15 17 20 22 23 23 24 27 24 18 17 19 19 22 24 24 25 24 24 29 30 25 21 21 25 26 23 20
20 21 22 24 24 25 25 25 24 26 26 27 29 30 31 31 33 33 29 23 19 19 23 24 22 23 21 19 20 21 20 21 24 25 21 20 21 20 22 24 24 24 24 23 22 24 26 25 21 17 18 22 23 22 20 17 20 22 20 18 16 16 18 19 19 21 24 24 20 15 17 18 17 22 25 24 25 25 25 29 26 19 18 23 27 27 22 17
19 20 21 22 23 24 24 24 24 25 25 26 28 29 30 33 34 32 28 24 20 17 17 19 21 23 22 20 20 21 21 22 25 24 21 21 21 21 22 23 24 24 22 22 21 23 25 24 21 17 18 21 21 20 17 14 19 21 18 18 18 17 18 18 17 18 19 19 17 16 19 20 19 24 28 29 29 24 21 22 21 18 19 25 28 25 20 15
18 19 19 20 22 23 23 24 23 24 25 26 27 29 31 33 32 29 27 25 22 21 19 17 19 21 21 20 20 21 21 22 26 24 22 23 23 23 23 24 26 26 24 24 24 24 24 23 22 19 19 20 19 18 16 12 15 18 17 18 18 19 19 18 17 17 17 17 15 16 20 22 24 28 31 30 28 25 22 20 18 18 21 26 25 21 18 16
18 18 19 20 21 22 22 23 23 23 25 26 27 30 32 32 29 26 26 23 21 23 22 18 20 21 19 19 20 22 21 20 25 25 23 25 25 24 24 24 27 27 25 27 26 24 23 22 21 20 20 21 18 19 20 17 14 17 19 20 20 20 20 19 17 16 17 19 17 18 22 23 25 28 28 25 25 27 28 24 20 19 22 25 22 17 16 19
19 20 20 21 22 23 23 23 23 24 25 26 28 30 30 29 27 25 24 21 21 23 22 19 21 22 20 20 21 21 20 20 24 25 24 24 25 24 24 24 27 27 27 28 26 25 24 19 17 18 21 22 20 20 23 21 17 18 19 19 19 19 19 18 18 18 19 19 18 21 24 23 24 28 27 24 26 28 29 28 27 24 24 24 20 16 18 22
20 21 22 23 23 24 25 25 25 25 26 27 29 29 29 28 27 25 22 21 21 18 18 19 21 21 20 22 22 22 21 22 25 26 25 24 25 25 24 24 25 26 27 28 25 25 26 22 20 20 20 21 22 22 23 23 20 18 19 19 19 19 20 19 18 19 21 20 20 21 21 18 19 24 26 25 28 30 30 30 29 27 26 25 21 19 22 23
21 22 23 24 25 25 26 27 27 28 28 29 29 28 28 27 26 25 22 22 23 17 16 20 22 20 19 20 22 24 24 24 26 29 28 27 27 27 24 23 25 25 27 29 27 26 27 26 24 22 18 19 23 24 24 25 23 19 17 21 24 23 22 21 20 20 20 19 20 21 18 17 19 23 23 23 27 31 30 27 25 26 27 26 23 23 23 23
22 23 23 24 25 25 26 27 27 28 29 30 30 29 28 27 26 25 23 24 26 21 19 24 25 20 17 16 18 22 22 21 24 28 30 29 29 29 28 28 28 26 24 27 30 31 30 27 22 20 19 18 21 24 26 26 25 23 21 22 25 26 25 22 21 22 20 15 16 17 16 20 24 25 23 21 23 27 28 26 24 24 25 25 24 23 24 25
21 23 24 24 24 24 25 26 26 27 28 29 29 29 29 28 27 26 26 28 30 25 21 25 26 20 15 15 16 17 18 23 26 27 30 31 31 29 30 32 32 29 25 23 25 30 33 30 26 22 21 21 20 22 25 26 24 22 24 25 24 23 24 24 21 21 21 17 16 16 18 24 27 26 25 24 23 24 24 23 23 23 24 24 24 24 24 24
22 23 23 23 24 24 25 26 25 26 27 27 28 29 29 29 28 27 28 29 33 32 27 27 28 23 17 16 15 14 19 28 30 30 31 32 32 30 31 33 32 29 26 23 22 25 31 33 31 29 26 26 25 21 20 24 24 20 20 24 23 20 21 25 24 21 23 23 21 20 21 25 26 26 27 26 24 23 23 23 25 25 25 24 22 23 23 21
22 23 24 25 26 25 26 26 26 25 25 26 25 25 27 28 28 28 29 28 32 36 34 31 31 30 27 23 19 16 17 23 27 29 31 31 32 32 32 32 31 30 29 29 29 29 31 31 31 33 33 30 28 24 19 18 19 19 19 20 22 22 24 27 25 20 21 24 25 24 23 24 25 26 27 27 26 26 26 25 26 27 27 26 24 24 25 25
24 25 26 27 27 27 26 26 25 25 24 24 23 23 24 25 26 26 29 31 32 36 37 33 31 32 32 31 28 23 21 19 22 26 26 28 30 31 31 30 31 34 33 30 29 30 30 29 29 31 34 32 31 31 27 20 18 21 25 23 21 21 24 27 25 20 20 21 23 24 25 26 25 26 28 29 29 30 28 26 26 28 28 26 26 26 26 27
26 26 25 25 26 28 27 25 25 25 25 24 23 24 24 25 26 26 29 33 34 34 35 34 32 29 31 37 34 26 23 23 22 23 23 24 27 29 29 30 31 34 35 32 29 28 28 31 31 29 29 31 33 35 32 28 28 28 28 27 24 21 20 24 27 27 27 24 21 22 25 26 27 27 29 31 31 31 30 28 26 25 26 26 26 27 27 26
25 24 23 21 21 22 22 22 22 22 23 24 24 25 26 26 27 27 29 33 34 34 34 34 33 26 26 35 36 28 25 24 21 20 21 21 24 25 26 29 31 30 33 36 34 28 27 30 30 30 29 28 30 33 32 30 30 30 29 30 29 25 22 23 25 30 33 31 28 29 30 28 27 30 32 32 32 30 28 26 25 25 25 26 26 26 26 26
21 20 19 16 13 12 12 13 14 14 17 21 24 25 25 25 26 26 27 31 34 35 35 34 35 32 27 29 31 29 30 27 20 21 23 21 20 21 22 25 28 26 28 32 32 30 29 29 28 29 31 30 28 29 30 29 28 29 31 32 31 30 28 28 28 28 29 30 30 31 33 30 28 30 33 34 32 29 25 22 22 25 25 24 24 24 24 25
16 16 16 13 11 11 11 11 11 11 13 18 22 24 23 22 25 25 25 28 31 34 34 32 34 36 33 30 32 35 35 32 23 20 22 21 20 20 20 22 24 23 22 25 28 30 31 30 29 28 29 31 29 27 28 30 30 30 31 31 31 32 32 34 35 32 29 29 29 28 29 31 29 28 30 31 30 28 24 20 18 19 22 24 24 24 24 25
14 15 15 14 14 15 14 12 11 8 11 16 20 22 21 20 23 24 23 25 29 32 34 33 32 33 30 27 31 37 39 36 29 23 21 22 23 23 21 21 24 24 21 20 23 27 28 27 28 28 29 31 31 30 30 30 30 30 30 29 31 34 35 36 37 36 34 35 34 30 30 31 31 30 28 28 29 27 25 23 21 19 19 22 23 24 25 25
14 14 15 15 15 16 14 10 8 5 7 12 15 19 19 18 19 22 23 24 28 30 30 29 30 31 30 26 27 33 38 39 36 33 31 27 27 28 23 21 23 23 21 21 21 23 25 25 25 25 27 29 30 30 32 33 32 31 30 29 30 34 35 35 35 35 36 38 37 35 34 32 31 31 30 29 29 29 28 28 26 24 22 22 22 23 24 24
16 13 14 14 14 16 14 8 4 3 5 10 12 15 17 17 17 19 22 24 27 29 28 26 27 29 31 31 30 31 35 38 37 39 40 34 30 31 27 22 21 19 20 23 23 22 24 26 25 24 25 27 28 28 31 33 33 33 34 34 34 35 34 32 31 32 34 37 37 37 38 36 33 33 32 31 30 30 30 31 31 28 25 23 23 23 23 23
18 13 11 12 15 18 15 9 2 3 6 9 11 12 15 17 17 19 22 23 25 28 29 28 28 28 30 33 32 28 29 33 35 37 40 37 33 32 32 31 28 23 22 25 24 23 26 28 26 26 26 27 27 27 28 31 31 31 34 36 37 39 38 35 33 32 32 33 35 36 38 38 37 36 35 34 32 29 28 28 30 30 28 26 25 25 25 25
20 15 11 11 14 18 17 11 4 2 5 8 10 10 11 13 14 16 19 21 22 24 27 29 29 28 26 26 27 26 25 29 33 34 35 35 34 35 34 33 30 26 23 23 23 21 25 27 27 27 27 25 27 27 26 27 28 29 30 32 34 38 40 40 40 38 36 35 33 35 37 38 38 37 36 35 35 33 31 29 29 29 30 29 28 28 28 27
Wind_Direction
269 269 270 271 272 274 276 277 278 279 279 280 280 280 281 280 281 280 280 279 277 276 275 274 273 272 272 272 272 272 272 272 271 271 271 270 270 269 268 266 263 260 256 252 248 245 243 242 241 240 241 241 240 241 241 240 240 241 242 242 242 236 225 213 184 213 244 225 250 252 247 247 247 260 262 248 238 232 239 246 246 248 242 236 233 232 237 239
269 269 270 271 272 274 276 277 278 279 280 281 282 282 282 282 282 281 281 280 278 276 275 273 271 271 270 270 270 270 270 270 270 270 269 268 267 266 265 263 261 258 253 249 245 243 240 238 237 237 237 237 236 236 237 237 237 238 241 241 238 232 216 191 167 230 239 215 230 245 251 252 246 251 257 250 241 236 239 245 245 246 240 234 232 232 234 235
268 269 269 270 272 273 275 277 278 280 281 282 283 283 283 283 283 282 282 281 279 277 275 272 270 269 268 268 268 268 268 268 268 268 268 266 264 264 263 261 258 255 251 247 243 240 237 234 234 234 234 234 234 234 234 234 234 235 238 239 235 227 209 179 185 227 228 220 227 241 252 260 259 249 252 251 245 241 241 245 243 241 240 235 234 235 237 240
267 267 268 269 271 272 274 276 277 279 280 281 282 283 283 283 283 283 283 282 280 278 275 272 268 266 265 265 265 265 266 266 267 267 266 265 262 260 259 258 255 252 248 244 240 237 234 232 231 231 231 231 231 231 232 234 233 234 237 239 232 215 200 184 216 227 224 226 229 240 252 267 257 241 243 246 241 240 242 245 242 238 236 233 233 233 234 238
266 267 267 268 269 271 273 274 276 277 279 280 281 283 283 283 283 283 283 283 281 279 276 272 267 264 262 261 261 262 263 265 267 263 261 262 259 255 254 253 252 249 245 241 237 234 230 229 228 227 228 228 230 230 231 234 234 233 235 235 225 207 192 189 241 238 229 232 235 244 252 256 247 241 237 238 238 240 242 247 244 238 235 234 234 231 232 235
266 266 266 267 268 269 271 272 274 276 277 279 280 282 282 283 283 283 283 283 282 280 277 272 267 263 259 258 257 257 259 262 262 254 256 261 256 253 251 249 248 246 243 239 234 231 229 227 226 225 227 227 228 230 230 233 233 231 230 227 219 213 204 201 226 238 238 239 244 251 249 242 245 247 243 235 235 235 235 243 243 240 241 242 241 236 240 237
265 265 265 266 267 268 270 271 273 275 276 278 279 280 281 282 282 282 283 282 282 281 277 273 268 262 258 256 254 254 254 258 259 251 251 256 255 253 251 248 245 243 240 237 233 230 228 227 226 225 225 225 227 230 230 232 232 229 228 223 215 216 220 218 222 238 250 249 246 244 239 238 240 248 248 232 227 230 229 239 238 234 238 240 241 243 246 237
263 263 264 264 265 266 268 269 271 273 274 276 277 279 280 280 281 281 281 282 281 280 278 275 269 263 258 254 252 251 250 253 255 250 248 249 252 253 251 249 245 243 239 236 233 230 229 227 227 226 225 226 227 229 230 232 233 230 226 222 219 218 223 232 235 243 252 248 236 238 236 237 233 233 241 228 227 234 229 236 237 233 235 233 240 246 240 231
262 262 262 263 263 264 265 267 268 270 272 274 275 277 278 279 280 280 280 280 280 280 278 275 271 265 259 254 251 249 250 250 248 247 249 246 246 249 249 249 247 244 240 237 235 231 231 229 229 229 227 227 227 229 231 232 233 232 228 224 225 224 222 231 239 243 250 247 238 240 237 234 228 223 236 234 235 240 232 235 238 234 234 236 244 245 234 234
260 260 260 261 261 262 262 263 265 267 269 271 273 275 276 277 278 279 279 279 279 279 278 275 272 267 261 255 251 250 251 250 246 244 247 245 243 245 246 247 247 245 242 238 237 234 233 231 230 230 229 229 229 230 230 232 234 233 232 229 225 226 226 232 241 243 247 248 242 243 239 232 226 225 235 236 238 240 230 233 236 231 232 239 245 241 238 245
258 258 258 258 259 259 259 260 261 263 265 267 270 272 274 275 276 277 278 278 278 278 278 276 272 268 263 257 252 250 251 250 248 244 244 246 244 245 247 247 246 245 243 240 237 235 234 233 232 232 233 233 233 234 235 236 236 234 235 234 227 227 231 234 241 243 242 245 245 244 242 235 228 229 235 229 236 246 233 229 236 232 234 237 238 240 240 247
257 256 256 256 256 257 257 257 258 260 262 264 267 269 270 272 273 275 276 278 278 278 279 276 272 268 263 258 253 251 250 249 249 247 245 248 246 245 248 248 246 245 243 241 238 236 235 234 234 234 236 236 235 239 240 238 237 236 238 239 234 232 235 236 242 244 242 245 247 247 243 237 232 233 237 224 231 248 237 226 236 236 237 239 236 238 241 247
255 255 254 254 254 255 255 255 256 257 259 261 263 266 267 269 270 272 274 276 278 280 279 277 274 268 263 258 252 250 250 247 248 248 248 250 250 247 247 247 246 244 242 242 240 237 235 236 234 235 238 238 238 241 240 238 238 238 240 242 240 237 236 239 243 245 243 245 248 250 246 240 238 235 236 224 220 235 236 228 234 236 235 241 242 240 246 253
254 254 253 253 253 253 253 254 254 255 257 259 261 263 264 265 267 269 272 275 278 281 281 280 276 270 265 256 251 250 249 247 247 249 249 250 251 249 247 247 246 244 241 241 241 238 236 237 236 236 239 238 240 242 241 241 241 241 242 242 242 240 238 238 242 243 242 244 246 249 249 242 240 238 229 226 233 237 243 242 236 233 233 238 244 246 252 259
255 254 253 253 252 252 252 252 253 253 254 256 258 260 261 263 264 267 269 272 276 279 282 282 279 274 266 255 252 249 246 245 244 246 248 248 250 249 247 246 246 244 241 240 240 238 237 238 237 237 239 239 242 243 242 244 244 243 244 243 242 241 239 238 241 241 238 241 245 247 249 242 240 242 224 222 251 252 243 245 243 233 233 236 240 246 253 259
256 255 254 253 252 252 252 252 252 252 253 254 255 257 259 261 262 264 267 270 274 278 282 283 281 277 267 256 250 246 244 243 240 243 246 247 249 249 246 246 246 245 242 240 238 238 238 238 238 238 239 239 241 243 244 245 245 244 243 243 244 243 241 239 240 245 242 239 244 246 244 240 238 231 222 236 260 261 241 235 246 237 232 237 238 244 251 256
256 255 254 253 252 252 251 251 251 251 252 253 253 254 257 258 261 263 264 268 271 275 279 281 282 278 268 257 248 245 245 242 240 242 244 246 248 249 247 245 246 245 242 241 238 238 239 239 240 239 240 240 241 244 245 244 244 245 244 242 243 244 245 240 232 243 248 240 241 248 243 235 225 195 201 251 253 258 251 231 240 239 234 238 238 244 252 255
257 256 255 254 253 252 251 251 251 251 251 252 252 253 254 256 259 260 262 266 269 272 275 279 283 278 268 260 251 247 246 241 238 240 241 243 247 249 248 246 246 244 242 241 239 239 239 240 241 240 240 239 240 242 242 243 244 249 253 251 247 242 242 237 206 227 254 250 237 248 247 230 206 187 163 211 232 247 250 223 234 241 234 239 242 245 253 256
259 258 257 255 254 253 252 252 251 251 251 251 252 252 252 254 257 259 262 265 267 269 271 276 280 275 268 259 250 246 244 238 236 239 239 241 246 249 247 245 244 244 243 242 240 239 238 240 241 240 241 240 242 242 243 242 232 232 245 252 259 249 238 230 191 214 254 259 251 250 246 227 204 200 182 197 217 233 237 216 230 245 239 239 246 249 251 252
261 260 259 257 255 254 253 252 252 251 251 250 251 251 252 253 256 259 261 263 264 265 268 273 274 272 268 257 248 245 242 238 237 239 238 240 246 249 247 245 244 243 243 243 243 242 239 241 242 241 242 241 241 240 238 226 198 202 214 217 255 254 231 224 201 209 247 252 255 254 238 223 212 209 203 215 224 229 238 236 235 248 248 241 247 253 252 252
264 262 260 259 257 255 254 253 252 251 251 250 250 251 252 252 254 258 258 258 262 264 264 268 269 268 268 259 250 247 241 235 237 240 239 241 246 248 246 245 243 242 243 243 243 243 241 241 242 241 241 241 241 237 230 222 210 209 206 186 223 243 221 221 205 202 244 247 246 253 240 223 220 216 209 226 239 234 234 238 239 251 256 249 248 253 254 256
266 264 263 261 259 257 255 254 254 253 251 250 250 250 251 252 253 257 257 254 259 263 261 263 266 264 262 260 254 249 242 235 238 240 239 241 245 246 244 242 242 241 242 243 242 243 243 242 241 239 240 239 240 235 224 227 228 219 210 190 188 214 210 218 209 198 235 243 231 238 246 229 222 224 218 221 244 251 241 236 240 250 257 254 250 252 256 257
268 267 265 263 261 259 257 256 255 254 252 251 250 249 249 251 252 255 258 254 254 261 261 258 262 262 260 259 254 248 243 239 239 239 237 239 243 244 242 241 241 241 241 243 242 242 240 238 239 237 238 238 237 238 231 234 242 228 222 217 197 188 194 213 220 212 229 240 232 227 241 238 221 226 230 220 233 252 250 238 239 247 253 255 252 252 254 253
269 267 266 264 262 260 259 257 255 254 253 251 250 249 249 251 253 254 257 256 251 257 261 254 255 260 260 258 253 248 244 241 240 239 236 238 243 243 242 241 240 241 240 241 240 239 236 233 236 235 236 239 237 240 240 237 240 227 224 230 213 182 178 213 229 228 232 240 242 239 241 241 225 225 233 223 224 242 249 247 246 249 252 253 252 250 249 249
269 268 267 265 263 261 259 257 255 254 253 252 250 250 250 251 254 255 257 257 252 254 260 257 254 257 258 257 252 246 244 241 241 242 237 237 243 243 241 240 238 239 238 237 236 233 231 230 235 235 234 240 239 236 238 233 230 226 220 225 216 188 174 205 234 246 244 240 248 254 243 235 230 231 234 230 235 246 253 254 252 251 252 250 249 248 247 247
269 268 268 266 264 261 258 257 256 255 253 252 252 252 252 252 254 256 257 258 254 252 258 260 257 256 256 254 250 246 245 242 242 244 240 237 243 242 238 237 236 234 232 231 234 232 227 229 234 234 236 242 241 234 236 232 228 226 219 218 215 203 191 191 213 248 253 243 249 262 240 229 236 245 240 235 245 250 250 251 250 249 250 249 249 247 245 244
269 268 267 266 265 262 260 258 257 257 254 254 256 255 253 253 255 257 258 259 256 254 255 255 254 256 257 253 248 246 247 244 240 242 242 240 243 242 237 236 233 231 229 224 230 232 224 230 237 236 241 246 239 235 235 230 228 224 216 213 210 214 213 198 196 227 251 238 239 247 239 225 226 240 236 233 246 250 247 247 247 247 248 250 253 252 249 247
269 268 267 266 264 263 262 260 258 258 257 256 257 255 253 254 254 256 257 257 255 254 255 255 253 254 257 255 249 248 247 244 242 242 242 241 241 240 236 236 231 226 227 226 229 233 228 233 242 241 243 246 236 234 234 226 224 217 207 211 216 217 221 212 203 217 244 236 232 237 241 230 216 225 235 239 246 248 249 249 245 244 248 254 256 252 250 247
270 269 268 266 265 264 263 261 259 258 258 257 256 255 254 253 252 254 254 253 253 253 255 257 254 252 255 256 248 245 247 247 248 244 239 236 237 237 234 233 230 223 226 229 228 231 233 235 242 243 238 238 234 230 231 224 216 215 213 214 220 216 215 217 217 224 239 239 232 228 236 233 218 229 241 245 247 249 251 250 245 244 247 252 252 250 252 248
272 270 270 268 266 265 263 262 261 259 257 256 255 254 253 251 250 251 251 251 251 248 248 249 249 249 252 254 248 243 245 244 247 245 237 235 236 234 231 228 226 224 225 231 227 224 231 234 236 238 233 231 232 224 224 220 209 216 222 218 216 212 213 221 227 230 236 240 235 226 232 231 219 232 243 245 249 253 253 248 245 243 244 244 246 250 255 251
273 272 270 269 268 266 264 263 262 260 258 256 255 253 252 251 249 248 248 250 249 245 246 246 248 251 250 250 248 244 243 241 244 245 239 238 238 233 231 228 226 226 226 229 227 225 233 238 237 238 232 227 226 221 220 218 211 215 220 215 212 211 213 221 227 228 231 238 237 227 234 237 225 229 240 244 243 242 244 246 246 243 241 243 246 249 247 244
274 272 271 270 269 267 265 264 262 261 259 256 254 253 252 250 248 247 247 247 246 249 253 251 250 254 252 248 246 243 241 239 242 246 242 240 240 235 234 233 230 228 229 231 231 231 237 243 244 239 230 228 227 226 225 218 213 217 218 211 205 210 217 220 224 229 233 239 238 225 231 239 230 228 236 238 234 234 245 252 252 245 242 246 249 248 240 236
276 274 273 271 271 269 267 265 263 261 259 257 255 253 251 249 247 247 246 242 237 236 245 248 246 248 248 243 243 242 237 236 240 243 241 239 236 233 233 233 230 225 225 230 231 233 239 243 244 237 229 232 230 228 228 220 217 218 215 209 204 209 220 221 220 225 233 240 239 230 226 225 225 229 234 234 232 237 249 255 252 243 238 240 242 243 237 232
278 276 275 274 273 272 270 268 265 262 260 257 255 253 250 249 249 248 245 240 235 231 235 244 245 245 248 243 238 240 235 231 238 238 235 236 235 232 229 228 229 223 220 227 227 228 235 239 239 234 230 234 230 223 220 216 226 225 212 209 212 214 220 224 222 220 226 233 233 233 229 220 221 231 236 238 238 239 242 245 246 240 236 235 231 231 228 221
283 281 279 277 275 274 272 270 267 264 260 257 255 253 251 251 251 249 246 240 234 234 235 242 247 243 244 241 237 239 234 228 237 239 233 233 235 235 232 229 231 226 221 227 229 228 232 237 241 237 232 232 225 219 218 210 217 226 215 210 216 218 221 223 222 219 222 225 218 220 228 225 224 232 237 239 241 241 242 244 244 241 240 239 234 231 229 226
287 285 282 279 276 274 272 271 268 265 262 259 256 254 254 253 252 249 245 236 228 231 234 239 249 246 239 238 238 239 234 225 230 236 235 235 235 236 235 232 233 229 225 228 231 233 232 232 238 236 230 227 218 215 221 216 212 221 219 215 219 225 227 227 229 227 226 227 222 222 232 233 231 236 240 238 239 240 242 243 243 244 245 243 239 235 235 236
290 288 285 282 278 276 273 271 268 265 262 259 257 257 255 253 250 246 240 230 222 230 241 237 241 245 238 237 239 240 239 232 226 229 233 232 233 233 233 234 235 232 228 227 230 235 233 225 223 226 227 228 221 215 220 219 214 218 218 213 216 223 228 229 231 231 227 226 226 228 238 242 240 243 244 242 244 244 242 242 244 246 246 242 237 233 235 241
295 292 289 286 282 278 275 272 268 265 262 259 258 257 256 253 250 244 237 226 219 226 244 233 225 233 237 236 237 237 241 240 231 230 231 228 228 227 225 230 234 234 231 227 225 229 230 224 221 220 221 229 227 217 217 219 214 216 221 216 212 214 220 224 225 229 230 228 225 227 238 253 254 251 247 243 244 247 249 250 251 249 242 237 239 238 239 243
298 295 292 289 285 281 278 274 270 266 263 260 259 256 254 252 248 240 230 220 216 222 238 227 215 219 230 235 235 233 240 243 233 228 228 227 229 222 214 218 224 224 225 226 226 228 230 225 217 208 202 215 229 223 219 220 215 215 222 220 216 216 220 223 224 226 228 228 228 224 228 244 249 251 252 248 247 255 261 261 256 249 238 233 236 239 240 243
302 300 298 293 288 285 281 276 272 269 265 262 259 255 251 247 244 238 228 217 213 218 230 223 213 215 227 235 238 230 233 239 232 229 230 230 231 224 213 216 219 217 217 221 227 232 233 228 219 211 202 202 219 227 224 222 219 220 223 220 217 219 225 228 227 225 224 224 230 228 225 235 242 248 254 255 257 262 262 257 256 256 251 244 240 242 246 247
308 306 301 295 289 287 283 278 274 271 267 263 259 255 251 245 240 235 228 222 219 220 225 220 212 212 214 225 239 233 231 236 232 231 236 235 231 227 221 217 216 217 215 210 215 227 231 229 223 223 222 213 211 219 227 227 222 222 229 228 225 225 228 230 230 230 227 223 227 229 230 235 241 248 254 257 260 259 251 251 260 267 265 257 248 245 247 248
313 309 303 297 291 287 282 278 274 271 266 263 258 254 251 245 240 233 225 223 224 224 227 225 218 215 209 210 223 223 223 236 239 237 238 237 231 228 228 225 218 219 217 205 203 213 222 225 222 222 227 225 216 213 219 224 223 224 231 234 234 236 235 233 233 240 239 233 231 232 235 239 241 244 250 255 256 254 250 252 259 265 266 262 257 253 252 254
318 313 307 301 294 287 282 278 274 268 262 259 253 247 245 242 238 233 225 223 225 225 227 227 224 222 216 213 217 214 207 219 237 242 238 234 234 228 226 229 223 221 221 211 207 214 219 223 224 221 224 226 222 221 219 209 206 219 223 221 224 234 239 236 233 241 247 241 235 233 236 240 240 241 245 250 253 254 255 257 258 261 263 262 257 255 256 259
323 316 307 299 292 287 285 279 273 267 259 253 246 240 238 236 233 230 225 224 225 226 226 225 226 228 224 220 218 213 207 210 223 238 237 230 234 233 229 231 227 222 223 222 222 225 223 225 226 223 224 225 224 226 226 213 205 210 214 214 216 222 234 238 234 233 237 237 231 228 232 237 240 241 242 244 248 250 251 252 256 258 254 249 248 250 254 257
331 324 315 307 297 290 286 275 266 263 257 249 242 235 232 233 235 233 226 221 222 224 225 224 223 225 225 223 221 218 217 217 219 231 236 232 232 234 230 229 228 227 226 226 228 228 225 226 227 224 225 227 225 224 223 219 216 213 209 211 216 218 227 238 239 235 234 235 234 233 234 236 240 242 242 243 247 249 248 247 249 250 247 244 243 244 246 250
345 344 339 333 323 313 304 281 267 267 259 250 243 235 230 229 232 233 227 221 220 221 224 224 222 221 219 218 220 223 222 221 222 227 230 233 235 234 233 232 233 237 234 226 224 225 226 227 228 226 228 231 231 227 224 225 226 222 216 213 212 216 223 230 235 238 237 235 236 237 235 235 236 239 241 244 248 251 253 253 249 245 243 240 238 238 240 243
353 358 359 358 349 338 329 309 291 276 258 252 242 232 229 229 227 229 227 222 219 217 220 223 224 226 225 217 218 225 225 221 225 231 233 238 240 235 235 236 234 235 235 227 222 223 228 232 232 232 233 235 237 234 230 229 227 224 222 219 214 216 223 227 229 236 238 234 233 234 232 230 233 237 241 244 250 254 257 258 254 245 236 233 233 234 235 237
348 351 356 354 346 337 327 315 305 283 253 246 234 221 222 227 224 223 223 221 218 216 218 221 223 225 228 225 223 227 229 226 225 228 231 237 239 235 238 244 241 237 238 236 230 227 231 236 237 237 238 239 241 241 236 231 228 225 222 221 219 220 224 226 227 232 236 237 237 237 237 235 235 240 244 246 252 258 258 256 256 253 239 228 227 230 230 230
345 343 350 350 345 341 335 320 309 294 247 226 214 210 217 223 222 221 219 216 214 214 216 220 223 224 225 226 227 227 228 229 228 227 228 232 235 236 242 247 244 242 243 241 237 234 236 238 238 239 241 241 242 244 243 239 236 235 230 226 227 229 230 231 231 232 234 236 238 238 239 240 239 241 243 244 247 252 255 254 254 254 248 237 231 230 229 227
354 349 359 4 360 357 354 339 297 249 204 193 199 211 216 216 217 218 218 214 210 210 212 216 221 222 222 224 226 224 224 225 228 230 230 231 235 237 238 236 236 242 247 244 239 236 238 241 240 238 243 246 245 246 247 246 244 244 242 238 237 239 239 238 240 241 238 236 238 240 241 242 242 242 244 244 245 248 252 253 252 249 247 245 239 234 232 228
6 9 20 26 23 17 10 3 334 201 185 184 196 209 214 217 221 222 220 216 211 209 211 215 218 219 221 223 225 225 223 224 227 231 231 231 234 238 238 239 244 251 252 247 244 240 240 243 245 244 246 249 250 249 249 250 249 247 245 244 243 242 242 242 247 252 251 244 239 240 243 243 242 243 244 245 246 248 250 253 253 247 244 246 246 243 244 242
13 21 32 35 33 28 24 26 41 145 181 192 201 206 215 224 228 229 225 219 215 213 213 215 217 218 220 224 224 223 224 224 226 229 230 231 232 235 237 239 243 247 246 244 244 244 243 244 247 247 246 247 250 252 251 251 251 248 246 246 245 244 244 246 249 253 255 252 245 241 242 244 244 245 247 248 249 250 251 253 255 251 248 250 252 253 255 256